BREEZE-M DEB, 32042

Orbit data source: Space-Track

BREEZE-M DEB, 32042 is space debris in HEO originally from a launch on Tue, 28 Feb 2006 UTC launched from the Tyuratam Missile And Space Complex (TTMTR). Debris objects in space refer to the collection of defunct objects orbiting the Earth. Examples of debris include non-operational satellites, rocket bodies, and fragments generated from explosions, collisions, or faulty payload assembly.

Loading next visibility...
Identifier
32042, 2006-006V
Orbit
HEO
Country
Flag of CISCIS
Related business
Manufacturer
Khrunichev
Mission
Spacecraft
Bus & Motor
Unknown
Mass
Unknown
Launch date (UTC)
2006-02-28 (20 years ago)
Launch vehicle
Unknown
Launch site
Tyuratam Missile And Space Complex (TTMTR)
Object type
Payload
Rocket body
Debris
Shape & HBR
Unknown shape, 0.3 m
Radar Cross Section
Medium (>0.1 m² and <1 m²)

Expand to show TLE details & history
Last TLE update: 1 day ago

TLE from 1 day ago
0 BREEZE-M DEB
1 32042U 06006V   26162.08903641  .00001286  00000-0  11304-2 0  9999
2 32042  51.6536  79.0428 5079001  85.8544 328.1523  5.33297031371609
Epoch: 2026-06-11T02:08Z
TLE epoch observation values (Epoch: 2026-06-11T02:08:12.745Z)
Latitude
0.00003°
Longitude
147.55048°
Altitude
3,522.225 km
Speed
7.192 km/s
True Right ascension
05h 16m 09s
True Declination
0° 00' 00"
Sunlit
Object was in daylight at epoch
Visualization orbit readout
Latitude
Unknown
Longitude
Unknown
Altitude
Unknown
Speed
Unknown
Apparent Right ascension
Unknown
Apparent Declination
Unknown
Sunlit
N/A
Visualization observer readout
Local Sidereal Time
16:50:51
Azimuth
Unknown
Elevation
Unknown
Doppler factor
Unknown
Orbital elements
Apogee altitude
14,489.534 km
Perigee altitude
431.982 km
Semi-major axis
13,838.895 km
Eccentricity
0.5079
Inclination
51.6536°
RAAN
79.0428°
Arg. of periapsis
85.8544°
True anomaly
274.15332°
Mean anomaly
328.1523°
Eccentric anomaly
304.03753°
Mean motion
1.33319 °/min
Orbital period
270.03 mins
BSTAR
0.0011304
Loading maneuver chart data...
Computing Atmospheric mass density...
Loading historical data...
Loading historical data...
Loading historical data...
Loading historical data...
Loading historical data...
Loading historical data...
Loading historical data...

Documentation

Showing up to 5 results
|